This is the latest recevied weather packets stored in our database for station/object DC4AT. If no packets are shown the sender has not sent any weather packets the latest 10 day(s).
| Time | Temp. | Humidity | Pressure | Rain* | Wind** | Luminosity | Snow |
|---|---|---|---|---|---|---|---|
| 1787474870 | 15° C | 72% | 1023.1 hPa | 0 mm | - | 163 W/m² | - |
| 1787474271 | 15° C | 73% | 1023.1 hPa | 0 mm | - | 248 W/m² | - |
| 1787473671 | 15° C | 73% | 1023.1 hPa | 0 mm | - | 260 W/m² | - |
| 1787473071 | 14.44° C | 76% | 1023.2 hPa | 0 mm | - | 473 W/m² | - |
| 1787472471 | 13.89° C | 80% | 1023.3 hPa | 0 mm | - | 431 W/m² | - |
| 1787471871 | 13.89° C | 82% | 1023.4 hPa | 0 mm | - | 137 W/m² | - |
| 1787471271 | 13.89° C | 82% | 1023.3 hPa | 0 mm | - | 141 W/m² | - |
| 1787470671 | 13.33° C | 84% | 1023.4 hPa | 0 mm | - | 141 W/m² | - |
| 1787470071 | 13.33° C | 84% | 1023.3 hPa | 0 mm | - | 151 W/m² | - |
| 1787469471 | 12.78° C | 84% | 1023.3 hPa | 0 mm | - | 139 W/m² | - |
| 1787468871 | 12.78° C | 85% | 1023.3 hPa | 0 mm | - | 130 W/m² | - |
| 1787468271 | 12.78° C | 85% | 1023.3 hPa | 0 mm | - | 100 W/m² | - |
| 1787467671 | 12.22° C | 86% | 1023.3 hPa | 0 mm | - | 91 W/m² | - |
| 1787467071 | 12.22° C | 86% | 1023.3 hPa | 0 mm | - | 81 W/m² | - |
| 1787466471 | 12.22° C | 86% | 1023.3 hPa | 0 mm | - | 72 W/m² | - |
| 1787465871 | 12.22° C | 86% | 1023.3 hPa | 0 mm | - | 47 W/m² | - |
| 1787465271 | 12.22° C | 86% | 1023.2 hPa | 0 mm | - | 42 W/m² | - |
| 1787464671 | 11.67° C | 86% | 1023.2 hPa | 0 mm | - | 32 W/m² | - |
| 1787464071 | 11.67° C | 86% | 1023 hPa | 0 mm | - | 30 W/m² | - |
| 1787463471 | 11.67° C | 86% | 1022.8 hPa | 0 mm | - | 30 W/m² | - |
| 1787462871 | 11.67° C | 86% | 1022.6 hPa | 0 mm | - | 26 W/m² | - |
| 1787462271 | 11.67° C | 86% | 1022.6 hPa | 0 mm | - | 21 W/m² | - |
| 1787461671 | 11.67° C | 86% | 1022.5 hPa | 0 mm | - | 16 W/m² | - |
| 1787461071 | 11.67° C | 86% | 1022.4 hPa | 0 mm | - | 11 W/m² | - |
| 1787460471 | 11.67° C | 86% | 1022.4 hPa | 0 mm | - | 9 W/m² | - |
* Rain latest hour (hover to see other rain measurements)
** Current wind speed in m/s (hover to see current wind gust speed)